Temperature
21 20 18 18 17 16 16 15 15 15 14 14 14 13 13 13 14 14 14 13 13 14 14 14 14 15 15 15 16 16 16 16 16 16 17 17 17 18 18 18 18 18 18
21 20 19 18 17 16 15 15 15 14 14 14 14 13 13 13 13 13 13 13 13 13 13 13 14 14 14 15 15 15 16 16 16 16 16 16 17 17 18 18 18 18 18
21 20 18 18 17 16 15 15 15 14 14 14 13 13 13 13 13 13 13 13 13 13 13 14 14 14 14 14 15 15 15 15 16 16 16 16 16 17 17 18 18 18 18
20 19 18 17 17 16 15 14 14 14 14 13 13 13 13 13 13 13 13 13 13 13 13 13 13 14 14 14 14 14 15 15 15 15 16 16 16 16 17 17 18 18 18
20 19 18 17 16 16 15 14 14 14 13 13 13 13 13 13 13 13 13 13 13 13 13 13 13 13 13 14 14 14 14 15 15 15 15 16 16 16 16 17 17 17 17
20 19 18 17 16 15 15 14 14 13 13 13 13 13 13 13 13 13 13 13 13 13 13 13 13 13 13 13 14 14 14 14 14 15 15 15 16 16 16 16 17 17 17
20 19 18 17 16 15 15 14 14 13 13 13 13 13 13 13 13 12 12 13 13 13 13 13 13 13 13 13 13 14 14 14 14 14 15 15 15 16 16 16 16 16 16
20 19 18 17 16 15 15 14 14 13 13 13 13 13 13 13 12 12 12 12 12 13 13 13 13 13 13 13 13 13 13 14 14 14 14 14 15 15 15 16 16 15 16
20 19 18 17 16 15 15 14 14 14 13 13 13 13 13 12 12 12 12 12 12 12 12 12 13 13 13 13 13 13 13 14 14 14 14 14 15 15 15 15 15 15 15
20 19 18 17 16 16 15 15 14 14 14 13 13 13 13 12 12 12 12 12 12 12 12 12 13 13 13 13 13 13 13 13 13 14 14 14 14 14 15 15 15 15 15
20 19 18 17 16 16 15 15 15 14 14 13 13 13 13 12 12 12 12 12 12 12 12 12 12 13 13 13 13 13 13 13 13 13 14 14 14 14 15 15 15 15 15
19 19 18 17 16 16 15 15 15 14 14 13 13 13 13 13 12 12 12 12 12 12 12 12 12 12 12 12 12 13 13 13 13 13 13 14 14 14 14 15 15 15 15
19 19 18 17 17 16 16 15 15 14 14 13 13 13 13 12 12 12 12 12 12 12 12 12 12 12 12 12 12 13 13 13 13 13 13 13 14 14 14 14 14 15 15
20 19 18 17 17 16 16 15 15 14 14 13 13 13 13 12 12 12 12 12 12 12 12 12 12 12 12 12 12 12 13 13 13 13 13 13 13 14 14 14 14 14 14
20 19 18 18 17 17 16 16 15 14 14 14 13 13 13 12 12 12 12 12 12 12 12 12 12 12 12 12 12 12 13 13 13 13 13 13 13 13 14 14 14 14 14
20 20 19 18 18 17 17 16 15 15 14 14 13 13 13 12 12 12 12 12 12 12 12 12 11 12 12 12 12 12 12 13 13 13 13 13 13 13 13 13 13 14 14
20 20 19 19 18 18 17 16 16 15 15 14 14 13 13 12 12 12 12 12 12 12 12 12 12 12 12 12 12 12 12 12 12 12 13 13 13 13 13 13 13 13 13
20 20 19 19 18 18 17 16 16 15 15 14 14 13 13 13 12 12 12 12 12 12 12 12 12 12 12 12 12 12 12 12 12 12 12 13 13 13 13 13 13 13 13
20 19 19 18 18 18 17 17 16 16 15 15 14 14 13 13 13 12 12 12 12 12 12 12 12 12 12 12 12 12 12 12 12 12 12 12 13 13 13 13 13 13 13
19 19 18 18 18 18 17 17 16 16 16 15 14 14 14 13 13 13 13 12 12 12 12 12 12 12 12 12 12 12 12 12 12 12 12 12 13 13 13 13 13 13 13
19 18 18 18 18 17 17 16 16 16 16 15 15 14 14 14 13 13 13 13 13 12 12 12 12 12 12 12 12 12 12 12 12 12 12 12 12 12 12 13 13 13 13
18 18 18 17 17 17 17 16 16 16 15 15 15 14 14 14 13 13 13 13 13 13 13 13 12 12 12 12 12 12 12 12 12 12 12 12 12 12 12 12 12 12 13
18 18 17 17 17 17 16 16 16 16 15 15 15 15 14 14 14 14 13 13 13 13 13 13 12 12 12 12 12 12 12 12 12 12 12 12 12 12 12 12 12 12 12
18 18 17 17 17 17 16 16 16 16 15 15 15 15 15 14 14 14 14 14 14 13 13 13 13 12 12 12 12 12 12 12 12 12 12 12 12 12 12 12 12 12 12
18 17 17 17 16 16 16 16 16 15 15 15 15 15 15 15 15 14 14 14 14 14 13 13 13 13 13 13 12 12 12 12 12 12 12 12 12 12 12 12 12 12 12
17 17 16 16 16 16 16 16 16 15 15 15 15 15 15 15 15 14 14 14 14 14 14 14 14 13 13 13 13 13 12 12 12 12 12 12 12 12 12 12 12 12 12
Wind_Speed
3 6 4 3 3 5 7 6 5 5 5 4 4 5 5 5 5 4 4 6 6 6 5 5 4 3 3 4 4 2 3 3 3 2 2 3 4 5 4 3 2 3 5
2 5 4 4 4 5 5 6 6 6 4 3 4 4 5 4 4 4 4 5 5 5 5 5 4 4 3 4 3 2 2 3 4 3 2 2 2 4 5 3 3 3 4
4 5 5 4 4 5 6 7 6 6 6 6 4 5 5 5 4 5 4 5 5 4 4 5 5 4 3 3 4 4 4 4 4 5 4 3 4 2 2 3 3 3 3
2 3 3 5 5 5 6 7 7 7 7 7 5 6 5 5 6 5 5 6 5 4 4 4 5 4 3 3 4 4 3 4 4 3 4 3 2 3 2 2 3 3 3
2 3 3 4 4 5 5 5 6 6 6 6 6 5 4 4 5 5 6 6 5 4 4 3 4 4 3 3 3 3 3 3 4 3 2 3 2 3 3 3 3 2 2
2 2 2 3 3 4 4 4 4 5 5 6 6 6 5 6 7 6 6 5 4 4 5 4 4 4 3 3 3 3 4 4 4 4 4 3 3 4 3 3 4 3 2
2 2 3 4 3 3 3 4 4 5 5 6 6 7 6 6 6 7 6 6 5 4 5 5 4 3 3 3 3 3 4 4 4 4 4 4 4 3 3 3 3 2 2
3 3 3 2 1 2 2 3 4 4 4 5 6 6 7 5 5 6 6 6 5 5 6 5 4 4 3 3 3 3 4 3 4 5 4 3 4 4 3 3 4 3 2
3 3 2 1 1 1 2 3 4 4 4 5 5 5 6 6 6 6 6 5 5 6 6 6 5 4 4 3 3 3 3 3 4 4 4 4 4 4 4 4 5 5 4
3 3 3 1 1 1 0 1 2 3 4 5 5 5 5 6 6 5 6 6 7 6 6 6 5 4 3 3 3 3 3 3 3 3 4 4 3 3 3 4 4 5 5
3 3 3 2 1 1 1 1 1 2 3 5 5 6 5 5 5 5 6 6 6 7 7 6 5 5 4 3 3 3 3 3 3 3 3 4 4 4 4 4 4 5 5
3 3 3 1 1 0 2 2 2 3 3 3 5 6 5 5 6 7 7 7 7 7 7 6 5 5 5 4 4 4 3 2 2 3 3 3 3 4 4 4 5 5 5
5 4 4 2 1 0 1 1 1 2 1 2 4 5 6 6 6 6 7 7 7 7 7 7 6 5 5 5 5 4 4 3 2 2 3 3 3 3 3 4 4 4 5
5 4 4 3 3 2 2 1 1 1 1 1 2 4 5 5 5 6 7 7 7 7 7 7 7 6 6 6 6 6 5 3 2 2 2 2 2 2 2 2 2 2 3
4 4 5 4 3 3 2 1 1 0 1 1 2 3 5 5 5 5 6 7 7 7 6 7 7 6 5 6 6 6 5 4 3 2 1 1 2 1 1 1 1 1 1
3 3 4 4 3 3 2 2 1 1 0 1 2 2 3 4 4 5 5 6 6 6 6 6 6 6 6 8 8 7 5 4 3 2 1 1 2 3 3 3 3 3 3
3 3 3 4 3 2 2 2 2 1 1 1 1 2 3 3 4 5 5 6 5 5 5 6 6 6 6 8 9 9 5 4 3 2 2 2 1 0 2 3 3 3 4
3 3 2 3 3 3 3 3 3 2 0 1 1 1 1 2 3 3 4 4 5 5 4 5 5 5 6 8 9 10 5 4 3 3 3 1 2 2 2 1 1 1 2
4 3 2 2 2 2 2 1 2 3 2 1 1 1 1 1 2 4 4 3 4 4 5 4 4 5 6 7 7 8 4 4 4 4 5 4 3 4 4 1 1 1 0
3 3 2 1 1 2 2 1 2 1 1 2 1 1 1 1 2 3 4 4 4 4 4 4 4 4 4 5 6 7 3 4 4 3 4 5 5 5 5 1 1 1 1
4 3 1 1 0 1 1 2 2 1 2 3 1 1 1 2 3 3 3 4 4 4 4 4 3 2 2 2 4 4 3 3 4 3 3 3 5 5 5 2 0 1 1
3 3 2 2 1 1 2 3 1 1 1 1 2 3 3 4 3 3 4 4 4 5 5 4 3 1 0 1 1 3 3 3 3 3 2 2 4 5 5 2 1 0 1
3 2 2 2 2 3 3 3 2 2 2 3 4 5 5 5 4 4 4 4 3 3 4 3 3 3 1 1 1 1 4 4 2 2 3 4 4 4 2 1 2 1 1
3 2 2 1 2 1 1 1 2 2 3 5 5 6 6 5 5 4 3 3 3 3 3 3 3 3 2 1 1 1 2 3 3 3 4 5 4 3 2 2 2 2 1
3 3 1 0 1 1 1 0 1 2 4 5 5 5 4 4 4 4 4 4 4 4 4 3 3 3 2 1 1 1 1 2 3 4 3 2 2 2 2 1 1 1 1
3 3 2 1 1 2 2 2 2 3 4 5 4 3 2 2 3 4 4 8 9 9 10 9 7 4 5 4 3 3 3 4 5 3 3 4 3 3 2 2 2 2 2
Wind_Direction
94 97 75 46 15 21 17 358 353 1 5 5 340 337 328 324 316 316 334 334 324 322 303 295 295 287 271 264 253 244 225 221 207 209 262 269 257 267 256 232 218 178 184
59 91 77 49 31 29 14 350 0 349 3 358 338 326 324 319 318 335 334 334 328 323 311 303 288 274 261 261 261 247 225 231 202 185 179 222 257 263 248 230 227 205 182
24 30 36 28 29 33 16 357 355 354 9 358 353 341 335 328 339 338 333 325 317 313 311 302 296 285 268 249 248 244 229 223 221 202 189 182 202 224 259 238 232 215 198
54 48 33 30 17 34 28 358 358 5 9 356 356 345 335 339 330 326 320 319 313 316 311 296 290 287 282 265 248 241 240 223 225 228 224 219 177 171 216 273 252 228 200
78 50 48 49 18 37 27 358 360 4 4 343 328 320 338 331 321 322 321 324 322 325 322 314 302 295 287 277 264 255 247 232 225 220 221 228 216 205 186 210 228 243 227
107 103 78 75 45 40 19 357 356 1 344 331 330 340 344 336 329 330 329 327 322 322 330 321 308 301 291 282 277 259 250 244 240 229 213 212 199 200 199 200 203 209 237
103 81 65 55 42 20 6 349 3 356 345 339 337 341 343 340 339 337 330 329 326 324 322 316 307 299 293 288 280 261 252 244 240 234 224 216 217 208 201 193 198 205 223
111 86 80 73 47 357 11 8 357 339 339 337 340 340 349 349 338 332 332 331 325 316 316 316 310 307 298 288 279 266 255 246 238 238 230 224 219 213 201 189 176 177 218
126 126 111 78 40 22 27 11 345 343 347 342 337 352 349 342 341 338 336 331 325 324 330 319 314 306 301 290 282 270 264 255 246 239 229 223 221 216 206 193 181 175 187
145 132 126 117 49 28 7 313 309 332 352 347 345 353 344 341 338 334 342 336 332 329 323 324 322 319 310 301 293 282 260 254 253 244 233 226 219 211 207 199 197 192 186
136 130 132 144 163 265 301 309 339 23 17 356 348 340 337 333 336 344 343 339 337 333 332 330 338 334 324 318 313 303 281 256 254 250 238 231 218 208 209 204 201 198 191
137 147 150 175 184 5 344 340 7 32 25 360 341 329 328 342 352 351 350 348 345 341 338 341 351 345 344 346 333 322 313 280 269 261 247 244 233 213 206 207 205 204 196
160 163 158 180 181 269 290 305 18 41 15 359 331 327 344 355 354 352 354 349 346 348 349 351 354 351 352 350 341 336 324 303 280 263 246 243 235 232 218 209 204 209 205
163 167 164 189 188 213 267 310 28 17 342 340 321 335 344 352 358 0 355 350 352 356 357 356 356 356 356 352 352 345 335 325 306 290 273 259 231 237 222 215 209 203 198
176 174 173 194 191 196 207 172 161 308 342 333 348 4 354 4 359 358 356 356 357 359 358 358 356 355 355 3 0 343 332 327 320 307 282 207 159 168 163 191 180 152 191
193 181 183 182 198 206 183 150 163 146 321 341 30 23 349 358 351 352 359 357 352 352 359 359 356 358 3 360 357 348 332 332 332 327 319 230 193 186 181 187 187 177 191
162 172 193 174 188 187 119 101 90 96 273 348 49 35 359 355 355 354 354 348 345 356 359 354 356 359 359 355 354 352 340 329 332 332 342 342 354 149 162 181 190 200 216
139 156 179 159 181 172 144 149 164 189 215 27 0 33 342 337 342 338 335 336 341 348 344 343 347 352 358 7 5 354 350 349 353 1 2 14 30 24 26 85 154 179 211
113 129 143 153 178 144 128 191 193 173 173 167 282 306 305 331 332 326 323 325 331 330 328 334 346 353 2 17 14 4 349 3 7 17 23 27 41 35 20 64 142 143 148
97 106 129 197 163 134 126 276 281 228 172 157 194 325 357 329 311 308 312 314 309 306 317 327 336 352 1 24 21 14 359 357 1 11 28 42 39 22 10 7 162 162 171
116 122 160 174 55 96 159 258 292 2 72 83 40 333 288 267 259 269 285 294 300 307 307 304 307 332 358 27 25 16 8 348 344 358 10 23 24 15 358 355 93 180 156
134 166 189 184 182 224 242 262 278 44 94 141 239 262 264 269 279 258 264 277 290 293 294 296 305 303 70 90 31 7 355 347 349 348 360 16 9 4 0 359 335 23 37
140 163 205 211 208 217 226 257 246 208 210 215 232 243 249 241 241 248 256 262 267 276 289 304 315 316 323 154 131 353 341 351 353 341 328 325 328 335 321 283 273 270 200
130 137 158 210 256 249 165 251 290 259 247 241 239 239 243 242 235 230 236 252 267 281 293 304 304 303 314 354 25 323 312 329 332 323 315 308 305 299 286 275 271 247 191
107 115 126 174 330 359 69 16 294 290 283 273 258 248 244 247 248 238 232 235 232 226 238 263 286 303 303 281 330 348 338 344 334 324 306 288 274 270 260 238 224 192 163
93 102 103 82 4 353 22 28 350 312 295 294 298 294 276 255 249 254 257 239 233 233 228 230 236 250 246 239 250 272 290 305 319 320 287 283 273 256 244 230 228 210 196
Height
1527 1527 1528 1528 1528 1526 1525 1523 1521 1518 1516 1513 1510 1508 1506 1504 1502 1501 1500 1498 1497 1497 1496 1496 1496 1496 1497 1497 1498 1499 1501 1503 1505 1507 1508 1509 1510 1512 1514 1517 1519 1520 1522
1525 1526 1526 1527 1526 1525 1523 1522 1520 1517 1515 1512 1510 1508 1505 1503 1501 1499 1498 1496 1495 1494 1493 1493 1493 1493 1494 1494 1495 1496 1497 1499 1501 1503 1505 1506 1508 1509 1510 1513 1515 1517 1519
1525 1526 1526 1526 1525 1524 1522 1521 1519 1517 1514 1511 1509 1507 1504 1502 1500 1498 1496 1494 1492 1491 1490 1490 1489 1490 1491 1491 1492 1493 1494 1496 1498 1500 1502 1503 1503 1505 1507 1509 1511 1513 1515
1524 1525 1525 1525 1524 1523 1521 1520 1518 1516 1513 1511 1508 1506 1503 1501 1498 1496 1494 1492 1490 1489 1488 1487 1487 1487 1488 1488 1489 1490 1491 1493 1494 1496 1498 1500 1501 1502 1503 1505 1507 1509 1512
1523 1524 1524 1523 1523 1522 1520 1518 1517 1514 1512 1510 1508 1505 1503 1500 1497 1495 1493 1491 1489 1487 1486 1485 1485 1484 1485 1485 1486 1487 1488 1489 1491 1492 1493 1495 1497 1499 1500 1502 1504 1506 1508
1521 1522 1523 1522 1522 1520 1519 1517 1515 1513 1511 1509 1507 1505 1502 1500 1497 1494 1492 1489 1487 1485 1484 1483 1482 1482 1482 1483 1483 1484 1485 1486 1488 1489 1490 1491 1493 1495 1497 1499 1500 1502 1504
1520 1521 1521 1521 1520 1519 1518 1516 1515 1513 1511 1509 1506 1504 1502 1499 1496 1493 1491 1488 1486 1484 1483 1481 1480 1480 1480 1480 1480 1481 1482 1483 1484 1485 1486 1488 1490 1492 1494 1496 1498 1499 1501
1519 1520 1520 1520 1519 1518 1517 1516 1514 1512 1510 1508 1506 1504 1501 1498 1496 1493 1490 1487 1485 1483 1481 1480 1479 1478 1477 1477 1478 1478 1479 1479 1480 1482 1483 1485 1486 1488 1490 1492 1495 1496 1498
1517 1518 1519 1519 1518 1517 1516 1515 1513 1511 1509 1507 1505 1503 1500 1498 1495 1492 1489 1487 1484 1482 1480 1478 1477 1476 1476 1475 1475 1475 1476 1477 1477 1479 1480 1481 1483 1485 1487 1489 1491 1494 1495
1516 1517 1517 1517 1517 1516 1515 1514 1512 1511 1509 1507 1505 1503 1500 1497 1495 1492 1489 1486 1484 1481 1479 1477 1476 1474 1474 1473 1473 1473 1473 1474 1475 1476 1477 1478 1479 1481 1483 1485 1488 1490 1492
1514 1515 1516 1516 1516 1515 1515 1513 1512 1510 1508 1506 1504 1502 1500 1497 1495 1492 1489 1486 1483 1481 1479 1477 1475 1473 1473 1472 1471 1471 1471 1472 1472 1473 1474 1475 1477 1478 1480 1482 1484 1486 1488
1513 1514 1514 1515 1515 1514 1514 1513 1511 1510 1508 1506 1504 1502 1500 1497 1494 1492 1489 1486 1483 1481 1478 1476 1474 1473 1472 1471 1470 1469 1469 1470 1470 1471 1472 1473 1474 1476 1477 1479 1480 1482 1484
1511 1512 1513 1513 1514 1513 1513 1512 1511 1509 1507 1505 1503 1501 1499 1497 1494 1491 1489 1486 1483 1481 1478 1476 1474 1472 1471 1469 1469 1468 1468 1468 1468 1469 1470 1470 1472 1473 1474 1476 1477 1479 1481
1509 1510 1511 1512 1512 1512 1512 1511 1510 1508 1507 1505 1503 1501 1499 1497 1494 1492 1489 1486 1483 1481 1478 1476 1474 1472 1470 1469 1467 1467 1466 1466 1467 1467 1468 1468 1469 1470 1471 1473 1474 1476 1478
1508 1509 1509 1510 1511 1510 1510 1510 1509 1508 1506 1505 1503 1501 1499 1497 1494 1492 1489 1487 1484 1481 1478 1476 1474 1472 1470 1468 1467 1466 1465 1465 1465 1466 1466 1467 1467 1468 1469 1470 1472 1473 1475
1506 1507 1508 1508 1509 1509 1509 1508 1508 1507 1506 1505 1503 1501 1499 1497 1494 1492 1490 1487 1485 1482 1479 1477 1474 1472 1470 1469 1467 1466 1465 1464 1464 1465 1465 1465 1466 1467 1468 1469 1470 1471 1473
1504 1505 1506 1507 1508 1508 1508 1508 1507 1506 1505 1504 1502 1500 1499 1496 1494 1492 1490 1488 1485 1483 1480 1478 1475 1473 1471 1469 1468 1466 1465 1464 1464 1464 1464 1465 1465 1466 1466 1467 1468 1469 1470
1502 1504 1505 1505 1506 1507 1507 1506 1506 1505 1505 1503 1502 1500 1498 1496 1494 1492 1490 1488 1486 1484 1481 1479 1476 1474 1471 1469 1468 1467 1466 1465 1464 1464 1464 1464 1464 1464 1465 1466 1466 1467 1468
1501 1502 1503 1504 1505 1505 1506 1506 1505 1504 1503 1502 1501 1500 1498 1496 1494 1492 1491 1489 1487 1484 1482 1480 1477 1475 1472 1470 1469 1468 1466 1465 1464 1464 1464 1463 1463 1463 1464 1464 1465 1465 1466
1500 1501 1502 1503 1504 1504 1504 1504 1504 1504 1503 1501 1500 1499 1497 1496 1494 1492 1490 1489 1487 1485 1483 1481 1478 1476 1474 1472 1470 1469 1467 1466 1465 1464 1464 1463 1462 1462 1462 1462 1463 1463 1464
1499 1500 1501 1502 1503 1503 1503 1503 1503 1502 1501 1500 1499 1497 1496 1495 1493 1492 1490 1488 1487 1485 1483 1481 1479 1477 1475 1474 1472 1470 1468 1467 1466 1465 1464 1463 1462 1461 1461 1461 1462 1462 1463
1498 1499 1500 1501 1501 1501 1502 1501 1501 1501 1500 1498 1497 1496 1495 1494 1493 1491 1489 1488 1486 1485 1483 1481 1480 1478 1476 1474 1473 1471 1469 1468 1466 1465 1464 1463 1462 1461 1461 1461 1461 1461 1462
1497 1498 1498 1499 1499 1500 1500 1500 1499 1498 1498 1497 1495 1494 1493 1492 1491 1490 1488 1487 1486 1484 1483 1481 1480 1478 1476 1474 1473 1471 1470 1468 1467 1466 1465 1464 1463 1462 1461 1461 1461 1461 1461
1495 1496 1496 1497 1498 1498 1497 1497 1497 1496 1495 1495 1494 1493 1491 1490 1489 1488 1487 1486 1484 1483 1482 1480 1479 1477 1476 1474 1472 1471 1469 1468 1467 1466 1465 1464 1463 1462 1461 1461 1461 1461 1461
1494 1494 1495 1495 1495 1495 1495 1494 1494 1493 1493 1492 1491 1490 1489 1488 1487 1486 1485 1484 1482 1481 1480 1479 1477 1476 1474 1473 1472 1470 1469 1467 1466 1465 1464 1463 1462 1462 1461 1461 1460 1460 1460
1492 1492 1493 1493 1493 1493 1493 1492 1491 1490 1490 1489 1489 1488 1487 1486 1484 1483 1482 1481 1480 1479 1478 1476 1475 1473 1472 1471 1470 1469 1467 1466 1465 1464 1463 1462 1462 1461 1460 1460 1459 1459 1459